Find Starlink 4359

NORAD ID: 53226 Int'l Des: 2022-084 Owner: SPXS Country: US Constellation: starlink operational
LEOCIRCULARRETROGRADESSO

現在のビュー

3D地球を読み込み中...

About Starlink 4359

Starlink 4359 (NORAD 53226) is a starlink constellation satellite (v1.5) launched Jul 22, 2022 by SPXS of US. It operates in LEO, CIRCULAR, RETROGRADE, SSO orbit with a mass of 297.00 kg.

Starlink 4359について

説明を読み込み中...

次回通過

Passes for default location (London). Set your location on the main map for personalized predictions.

高度履歴

Loading altitude history...

軌道要素

1 53226U 22084AP 26195.12035449 .00001276 00000-0 92287-4 0 9993
2 53226 97.2825 252.6709 0001594 117.0452 243.0938 15.05663294218330
Epoch: Jul 14, 2026 • Age: 15 hours

現在のステータス

高度 554.1 km
遠地点 / 近地点 N/A
速度 7.59 km/s
衛星直下点 35.23°N, 54.5°E
打ち上げ日 Jul 22, 2022
運用期間 3.9 years
タイプ internet

技術仕様

分類 Payload
質量 297.00 kg
乾燥質量 275.00 kg
総質量 297.00 kg
長さ 0.20 m
直径 2.80 m
スパン 9.00 m
形状 Box + pan
製造者 SPXS
バスタイプ Starlink
フェーズステータス In Orbit
所有者/国 SPXS/US

Most Searched